TimeMDT,TemperatureF,Dew PointF,Humidity,Sea Level PressureIn,VisibilityMPH,Wind Direction,Wind SpeedMPH,Gust SpeedMPH,PrecipitationIn,Events,Conditions,WindDirDegrees,DateUTC
12:53 AM,46.0,43.0,89,30.05,10.0,ENE,3.5,-,N/A,,Clear,70,2013-05-10 06:53:00
1:53 AM,46.4,42.8,87,30.15,10.0,Calm,Calm,-,N/A,,Clear,0,2013-05-10 07:53:00
2:53 AM,46.0,41.0,83,30.06,10.0,Calm,Calm,-,N/A,,Clear,0,2013-05-10 08:53:00
3:53 AM,46.9,41.0,80,30.05,10.0,ESE,3.5,-,N/A,,Clear,110,2013-05-10 09:53:00
4:53 AM,44.1,39.9,85,30.06,10.0,ESE,6.9,-,N/A,,Clear,110,2013-05-10 10:53:00
5:53 AM,42.8,39.2,87,30.18,10.0,SE,3.5,-,N/A,,Clear,130,2013-05-10 11:53:00
6:53 AM,44.6,39.2,81,30.20,10.0,SE,4.6,-,N/A,,Clear,130,2013-05-10 12:53:00
7:53 AM,48.9,41.0,74,30.11,10.0,South,3.5,-,N/A,,Clear,170,2013-05-10 13:53:00
8:53 AM,53.1,41.0,64,30.11,10.0,South,4.6,-,N/A,,Clear,180,2013-05-10 14:53:00
9:53 AM,55.9,41.0,57,30.12,10.0,South,4.6,-,N/A,,Clear,180,2013-05-10 15:53:00
10:53 AM,60.8,39.2,45,30.21,10.0,South,3.5,-,N/A,,Clear,180,2013-05-10 16:53:00
11:53 AM,64.9,39.0,39,30.07,10.0,NNW,5.8,-,N/A,,Clear,330,2013-05-10 17:53:00
12:53 PM,63.0,42.1,46,30.08,10.0,WNW,6.9,18.4,N/A,,Mostly Cloudy,300,2013-05-10 18:53:00
1:53 PM,66.0,41.0,40,30.05,10.0,WNW,5.8,-,0.00,,Partly Cloudy,290,2013-05-10 19:53:00
2:28 PM,64.4,44.6,49,30.16,10.0,Calm,Calm,-,0.00,Rain-Thunderstorm,Light Thunderstorms and Rain,0,2013-05-10 20:28:00
2:53 PM,60.1,37.9,44,30.10,7.0,Variable,3.5,28.8,0.01,Rain-Thunderstorm,Thunderstorms and Rain,0,2013-05-10 20:53:00
3:07 PM,62.6,37.4,39,30.17,10.0,South,3.5,-,0.00,,Mostly Cloudy,180,2013-05-10 21:07:00
3:53 PM,66.0,37.0,34,30.04,10.0,South,4.6,-,0.00,,Partly Cloudy,180,2013-05-10 21:53:00
4:53 PM,69.1,34.0,27,30.02,10.0,WSW,5.8,-,N/A,,Mostly Cloudy,240,2013-05-10 22:53:00
5:53 PM,70.0,32.0,25,30.01,10.0,Calm,Calm,-,N/A,,Partly Cloudy,0,2013-05-10 23:53:00
6:53 PM,69.1,30.9,24,30.01,10.0,Calm,Calm,-,N/A,,Clear,0,2013-05-11 00:53:00
7:53 PM,68.0,33.1,27,30.02,10.0,East,5.8,-,N/A,,Clear,80,2013-05-11 01:53:00
8:53 PM,59.0,39.0,48,30.06,10.0,ENE,6.9,-,N/A,,Clear,60,2013-05-11 02:53:00
9:53 PM,57.9,39.0,49,30.10,10.0,East,11.5,-,N/A,,Clear,100,2013-05-11 03:53:00
10:53 PM,57.9,37.0,46,30.11,10.0,ESE,6.9,-,N/A,,Clear,110,2013-05-11 04:53:00
11:53 PM,57.0,37.0,47,30.12,10.0,ESE,11.5,-,N/A,,Clear,110,2013-05-11 05:53:00